Погода в Ханг Донге

Таиланд     18°41′13″N   98°54′56″E
темп.,
°C
ветер,
м/с
пор.,
м/с
влажн.,
%
обл.,
%
осадки,
мм/ч
давл.,
гПа
погр.,
м
2 декабря, чт
чт201:00+18с12855 0.0 101558
04:00+17с128546 0.0 101458
07:00+17с118676 0.0 101739
10:00+24всв016034 0.0 1018562
13:00+27юз115187 0.0 10151243
16:00+26юз115655 0.0 1013965
19:00+21юз12783 0.0 101551
22:00+20сз11825 0.0 101720
3 декабря, пт
пт301:00+19ссз11875 0.0 101633
04:00+18ссз11915 0.0 101642
07:00+18ссз11925 0.0 101736
10:00+24вюв11685 0.0 1018648
13:00+27ююз115544 0.0 10141336
16:00+25ююв226883 0.1 1013335
19:00+21ююз01819 0.1 101613
22:00+20зсз00887 0.0 101821
4 декабря, сб
сб401:00+19юз1192100 0.0 101724
04:00+19ююв0089100 0.0 101678
07:00+18всв0093100 0.0 101826
10:00+23ююв1270100 0.0 1019711
13:00+25ю2258100 0.1 10151448
16:00+24юз1171100 0.2 1014262
19:00+22ссз0076100 0.2 101519
22:00+20зюз118538 0.0 101715
5 декабря, вс
вс501:00+19зсз008967 0.0 101727
04:00+18ссв119290 0.0 101628
07:00+17с0192100 0.0 101832
10:00+23всв1167100 0.0 1018616
13:00+26ююз1153100 0.0 10151159
16:00+25юз2261100 0.0 1013785
19:00+22юз1275100 0.0 1015102
22:00+20юз0178100 0.0 101621
6 декабря, пн
пн601:00+20юв018182 0.0 101631
04:00+19ю1180100 0.0 101560
07:00+19ююз118198 0.0 101676
10:00+22ююв016972 0.0 1018482
13:00+27ю015099 0.0 10141420
16:00+25ююз015798 0.0 1012791
19:00+21юз127343 0.0 101469
22:00+20зюз017634 0.0 101550